Location: Home
(42.5358°N, 72.7383°W)
Time: 06:11:07
(UTC-05:00)

A-11 Canister half - Pass Details

Date: 02 December 2021
Orbit: 1524 x 1684 km, 47.3° (Epoch: 17 January)

Event Time Altitude Azimuth Distance (km) Brightness Sun altitude
Exits shadow 01:01:10 12° 70° (ENE) 3,771 11.2 -63.4°
Drops below altitude 10° 01:01:41 10° 69° (ENE) 3,918 11.4 -63.4°
Sets 01:04:57 0° 64° (ENE) 4,892 12.0 -62.9°
